This is the latest recevied weather packets stored in our database for station/object KE6LRO. If no packets are shown the sender has not sent any weather packets the latest 10 day(s).
| Time | Temp. | Humidity | Pressure | Rain* | Wind** | Luminosity | Snow |
|---|---|---|---|---|---|---|---|
| 1777674895 | 22.78° C | 22% | 1020.6 hPa | 0 mm | - | 53 W/m² | - |
| 1777674591 | 22.78° C | 21% | 1020.5 hPa | 0 mm | - | 500 W/m² | - |
| 1777674289 | 23.33° C | 21% | 1020.6 hPa | 0 mm | - | 514 W/m² | - |
| 1777673985 | 24.44° C | 20% | 1020.6 hPa | 0 mm | - | 521 W/m² | - |
| 1777673682 | 23.89° C | 22% | 1020.8 hPa | 0 mm | - | 535 W/m² | - |
| 1777673380 | 23.33° C | 21% | 1020.6 hPa | 0 mm | - | 545 W/m² | - |
| 1777673077 | 23.89° C | 21% | 1020.6 hPa | 0 mm | - | 558 W/m² | - |
| 1777672772 | 23.33° C | 21% | 1020.9 hPa | 0 mm | - | 566 W/m² | - |
| 1777672470 | 22.22° C | 23% | 1020.8 hPa | 0 mm | - | 580 W/m² | - |
| 1777672165 | 22.78° C | 20% | 1021.1 hPa | 0 mm | - | 494 W/m² | - |
| 1777671861 | 22.78° C | 19% | 1021.1 hPa | 0 mm | - | 599 W/m² | - |
| 1777671556 | 23.33° C | 19% | 1021.2 hPa | 0 mm | - | 612 W/m² | - |
| 1777671254 | 22.78° C | 23% | 1021.3 hPa | 0 mm | - | 623 W/m² | - |
| 1777670949 | 22.22° C | 19% | 1021.4 hPa | 0 mm | - | 632 W/m² | - |
| 1777670646 | 23.33° C | 20% | 1021.1 hPa | 0 mm | - | 642 W/m² | - |
| 1777670343 | 22.78° C | 19% | 1021.4 hPa | 0 mm | - | 639 W/m² | - |
| 1777670040 | 23.33° C | 18% | 1021.2 hPa | 0 mm | - | 656 W/m² | - |
| 1777669738 | 22.78° C | 20% | 1021.3 hPa | 0 mm | - | 659 W/m² | - |
| 1777669434 | 21.67° C | 22% | 1021.3 hPa | 0 mm | - | 671 W/m² | - |
| 1777669131 | 21.67° C | 23% | 1021.5 hPa | 0 mm | - | 683 W/m² | - |
| 1777668828 | 22.78° C | 23% | 1021.6 hPa | 0 mm | - | 691 W/m² | - |
| 1777668524 | 22.22° C | 24% | 1021.5 hPa | 0 mm | - | 695 W/m² | - |
| 1777668221 | 21.67° C | 22% | 1021.5 hPa | 0 mm | - | 701 W/m² | - |
| 1777667918 | 21.67° C | 23% | 1021.7 hPa | 0 mm | - | 709 W/m² | - |
| 1777667615 | 22.22° C | 24% | 1021.7 hPa | 0 mm | - | 717 W/m² | - |
* Rain latest hour (hover to see other rain measurements)
** Current wind speed in m/s (hover to see current wind gust speed)